TimeEDT,TemperatureF,Dew PointF,Humidity,Sea Level PressureIn,VisibilityMPH,Wind Direction,Wind SpeedMPH,Gust SpeedMPH,PrecipitationIn,Events,Conditions,WindDirDegrees,DateUTC
12:53 AM,39.0,30.0,70,30.14,10.0,South,3.5,-,N/A,,Clear,190,2012-10-09 04:53:00
1:53 AM,39.0,30.0,70,30.13,10.0,South,4.6,-,N/A,,Clear,180,2012-10-09 05:53:00
2:53 AM,39.9,30.0,68,30.14,10.0,South,4.6,-,N/A,,Clear,180,2012-10-09 06:53:00
4:53 AM,39.0,30.9,73,30.12,10.0,South,6.9,-,N/A,,Clear,190,2012-10-09 08:53:00
5:53 AM,39.0,34.0,82,30.12,10.0,South,6.9,-,N/A,,Clear,190,2012-10-09 09:53:00
6:53 AM,39.0,34.0,82,30.12,10.0,South,6.9,-,N/A,,Clear,190,2012-10-09 10:53:00
7:53 AM,39.0,34.0,82,30.11,8.0,South,6.9,-,N/A,,Clear,190,2012-10-09 11:53:00
8:53 AM,43.0,35.1,74,30.12,10.0,South,6.9,-,N/A,,Clear,190,2012-10-09 12:53:00
9:53 AM,48.0,36.0,63,30.12,10.0,South,9.2,-,N/A,,Clear,190,2012-10-09 13:53:00
10:53 AM,53.1,35.1,50,30.11,10.0,SW,6.9,-,N/A,,Clear,220,2012-10-09 14:53:00
11:53 AM,55.9,35.1,45,30.10,10.0,SW,12.7,20.7,N/A,,Clear,220,2012-10-09 15:53:00
12:53 PM,57.9,34.0,41,30.06,10.0,SW,15.0,21.9,N/A,,Clear,230,2012-10-09 16:53:00
1:53 PM,59.0,35.1,41,30.03,10.0,SW,13.8,20.7,N/A,,Clear,230,2012-10-09 17:53:00
2:53 PM,60.1,34.0,38,30.00,10.0,South,12.7,23.0,N/A,,Clear,190,2012-10-09 18:53:00
3:53 PM,61.0,35.1,38,29.98,10.0,SSW,15.0,24.2,N/A,,Clear,200,2012-10-09 19:53:00
4:53 PM,61.0,36.0,39,29.96,10.0,SSW,11.5,23.0,N/A,,Clear,200,2012-10-09 20:53:00
5:53 PM,61.0,36.0,39,29.94,10.0,South,11.5,21.9,N/A,,Clear,190,2012-10-09 21:53:00
6:53 PM,59.0,36.0,42,29.95,10.0,SSW,6.9,-,N/A,,Clear,210,2012-10-09 22:53:00
7:53 PM,55.9,36.0,47,29.95,10.0,SSW,5.8,-,N/A,,Clear,200,2012-10-09 23:53:00
8:53 PM,53.1,37.0,55,29.95,10.0,South,5.8,-,N/A,,Clear,190,2012-10-10 00:53:00
9:53 PM,51.1,37.0,59,29.94,10.0,South,8.1,-,N/A,,Clear,190,2012-10-10 01:53:00
10:53 PM,51.1,37.9,61,29.92,10.0,SSW,8.1,-,N/A,,Clear,200,2012-10-10 02:53:00
11:53 PM,51.1,37.9,61,29.92,10.0,SSW,5.8,-,N/A,,Clear,200,2012-10-10 03:53:00